Tracy, MN

6:03 PM CST on February 23, 2017 (GMT -0600)
Tracy

Weather History for KTKC - September, 2013

Change the Weather History Date:

Tuesday, September 17, 2013

  Actual Average (KMML) Record (KMML)
Temperature  
Mean Temperature 56 °F -  
Max Temperature 62 °F 72 °F 94 °F (1955)
Min Temperature 50 °F 48 °F 35 °F (1981)
Degree Days  
Heating Degree Days 9    
Growing Degree Days 6 (Base 50)    
Moisture  
Dew Point 55 °F    
Average Humidity 89    
Maximum Humidity 96    
Minimum Humidity 79    
Precipitation  
Precipitation 0.10 in - - ()
Sea Level Pressure  
Sea Level Pressure 30.04 in    
Wind  
Wind Speed 10 mph (SSE)    
Max Wind Speed 17 mph    
Max Gust Speed 25 mph    
Visibility 8 miles    
Events Rain    
Averages and records for this station are not official NWS values.
T = Trace of Precipitation, MM = Missing Value Source: NWS Daily Summary

Daily Weather History Graph

Daily Weather History Graph

Search for Another Location

Airport or City:

Trip Planner

Search our weather history database for the weather conditions in past years. The results will help you decide how hot, cold, wet, or windy it might be!

Date:

Astronomy

Sep. 17, 2013 Rise Set
Actual Time 7:04 AM CDT 7:28 PM CDT
Civil Twilight 6:35 AM CDT 7:57 PM CDT
Nautical Twilight 6:00 AM CDT 8:31 PM CDT
Astronomical Twilight 5:25 AM CDT 9:07 PM CDT
Moon 6:18 PM CDT (9/17) 4:56 AM CDT (9/17)
Length of Visible Light 13h 22m
Length of Day
12h 24m
Waxing Gibbous, 96% of the Moon is Illuminated
Sep 17
Waxing Gibbous
Sep 19
Full
Sep 26
Last Quarter
Oct 4
New
Oct 11
First Quarter

Hourly Weather History & Observations

Time (CDT) Temp. Dew Point Humidity Pressure Visibility Wind Dir Wind Speed Gust Speed Precip Events Conditions
12:18 AM 52.5 °F 49.5 °F 89% 30.21 in 10.0 mi South 8.1 mph - N/A   Clear
12:38 AM 53.4 °F 50.0 °F 88% 30.21 in 10.0 mi South 8.1 mph - N/A   Clear
12:57 AM 53.2 °F 49.8 °F 88% 30.21 in 10.0 mi South 9.2 mph 17.3 mph N/A   Clear
1:17 AM 53.1 °F 49.5 °F 88% 30.20 in 10.0 mi South 10.4 mph - N/A   Clear
1:38 AM 52.7 °F 49.1 °F 88% 30.20 in 10.0 mi South 8.1 mph - N/A   Clear
1:57 AM 52.0 °F 49.1 °F 90% 30.20 in 10.0 mi Calm Calm - N/A   Clear
2:18 AM 51.4 °F 48.6 °F 90% 30.20 in 10.0 mi Calm Calm - N/A   Clear
2:38 AM 51.1 °F 48.4 °F 90% 30.19 in 10.0 mi Calm Calm - N/A   Clear
2:58 AM 50.9 °F 48.4 °F 91% 30.18 in 10.0 mi South 6.9 mph - N/A   Clear
3:18 AM 51.1 °F 48.4 °F 90% 30.17 in 10.0 mi South 8.1 mph - N/A   Clear
3:38 AM 51.1 °F 48.6 °F 91% 30.16 in 10.0 mi South 11.5 mph - N/A   Clear
3:58 AM 51.8 °F 48.9 °F 90% 30.15 in 10.0 mi South 10.4 mph - N/A   Clear
4:18 AM 52.0 °F 49.1 °F 90% 30.15 in 10.0 mi South 9.2 mph - N/A   Scattered Clouds
4:38 AM 52.7 °F 49.5 °F 89% 30.14 in 10.0 mi South 10.4 mph 17.3 mph N/A   Mostly Cloudy
4:58 AM 52.9 °F 50.0 °F 90% 30.14 in 10.0 mi South 5.8 mph - N/A   Overcast
5:18 AM 52.9 °F 50.0 °F 90% 30.14 in 10.0 mi South 10.4 mph - N/A   Overcast
5:37 AM 53.6 °F 50.4 °F 89% 30.13 in 10.0 mi South 11.5 mph - N/A   Overcast
5:57 AM 54.5 °F 50.9 °F 88% 30.12 in 10.0 mi South 11.5 mph - N/A   Overcast
6:17 AM 54.9 °F 51.4 °F 88% 30.11 in 10.0 mi South 12.7 mph 18.4 mph N/A   Overcast
6:38 AM 55.6 °F 52.0 °F 88% 30.11 in 10.0 mi South 11.5 mph 21.9 mph N/A   Overcast
6:58 AM 55.8 °F 52.3 °F 88% 30.11 in 10.0 mi South 12.7 mph 19.6 mph N/A   Overcast
7:18 AM 55.6 °F 52.3 °F 89% 30.11 in 10.0 mi South 10.4 mph 17.3 mph N/A   Overcast
7:37 AM 56.1 °F 52.9 °F 89% 30.11 in 10.0 mi South 11.5 mph 17.3 mph N/A   Overcast
7:57 AM 56.3 °F 52.9 °F 88% 30.10 in 10.0 mi South 15.0 mph - N/A   Mostly Cloudy
8:18 AM 57.2 °F 53.6 °F 88% 30.09 in 10.0 mi South 11.5 mph 18.4 mph N/A   Mostly Cloudy
8:38 AM 58.1 °F 54.1 °F 87% 30.09 in 10.0 mi South 15.0 mph 20.7 mph N/A   Overcast
8:57 AM 58.5 °F 54.3 °F 86% 30.09 in 10.0 mi South 11.5 mph 20.7 mph N/A   Overcast
9:18 AM 59.2 °F 54.5 °F 84% 30.09 in 10.0 mi South 16.1 mph 25.3 mph N/A   Overcast
9:38 AM 59.4 °F 54.5 °F 84% 30.08 in 10.0 mi South 12.7 mph 21.9 mph N/A   Overcast
9:58 AM 59.7 °F 54.5 °F 83% 30.08 in 10.0 mi South 13.8 mph 20.7 mph N/A   Overcast
10:18 AM 60.1 °F 54.9 °F 83% 30.08 in 10.0 mi South 17.3 mph 23.0 mph N/A   Overcast
10:38 AM 60.6 °F 54.9 °F 81% 30.08 in 10.0 mi South 16.1 mph 21.9 mph N/A   Overcast
10:58 AM 60.8 °F 55.4 °F 82% 30.07 in 10.0 mi South 16.1 mph 23.0 mph N/A   Overcast
11:17 AM 61.3 °F 55.6 °F 81% 30.06 in 10.0 mi South 11.5 mph 24.2 mph N/A   Overcast
11:37 AM 61.7 °F 55.6 °F 80% 30.05 in 10.0 mi SSE 15.0 mph 21.9 mph N/A   Overcast
11:58 AM - - N/A% - - North - - N/A   Unknown
12:18 PM 62.2 °F 55.8 °F 79% 30.05 in 10.0 mi South 15.0 mph 21.9 mph N/A   Overcast
12:38 PM 61.9 °F 55.9 °F 81% 30.04 in 10.0 mi South 15.0 mph 24.2 mph N/A   Overcast
12:58 PM 61.7 °F 55.9 °F 81% 30.04 in 10.0 mi South 15.0 mph 21.9 mph N/A   Overcast
1:17 PM 61.7 °F 56.1 °F 82% 30.02 in 10.0 mi South 16.1 mph 24.2 mph N/A   Overcast
1:38 PM 61.9 °F 56.3 °F 82% 30.01 in 10.0 mi SSE 13.8 mph 19.6 mph N/A   Overcast
1:58 PM 62.1 °F 56.3 °F 81% 30.01 in 10.0 mi SSE 13.8 mph 20.7 mph N/A   Overcast
2:17 PM 62.2 °F 56.5 °F 81% 30.00 in 10.0 mi South 15.0 mph 20.7 mph N/A   Overcast
2:38 PM 61.7 °F 56.7 °F 84% 29.99 in 10.0 mi SSE 12.7 mph 19.6 mph N/A   Overcast
2:58 PM 61.7 °F 56.8 °F 84% 29.99 in 10.0 mi South 15.0 mph 18.4 mph N/A   Overcast
3:17 PM 61.5 °F 57.0 °F 85% 29.98 in 10.0 mi SSE 13.8 mph 18.4 mph N/A   Overcast
3:38 PM 61.5 °F 57.2 °F 86% 29.97 in 10.0 mi SE 10.4 mph - N/A   Overcast
3:58 PM 61.2 °F 57.4 °F 87% 29.96 in 10.0 mi SSE 12.7 mph 17.3 mph N/A   Overcast
4:18 PM 60.8 °F 57.4 °F 88% 29.96 in 10.0 mi SSE 13.8 mph 19.6 mph N/A   Overcast
4:38 PM 60.8 °F 57.6 °F 89% 29.95 in 10.0 mi SSE 11.5 mph - N/A   Overcast
4:58 PM 60.4 °F 57.4 °F 90% 29.95 in 7.0 mi SSE 11.5 mph - N/A   Overcast
5:18 PM 60.1 °F 57.6 °F 91% 29.95 in 4.0 mi SSE 11.5 mph 19.6 mph N/A Rain Rain
5:37 PM 59.5 °F 57.7 °F 94% 29.94 in 3.0 mi SSE 10.4 mph 18.4 mph N/A   Overcast
5:58 PM 59.5 °F 57.7 °F 94% 29.94 in 2.5 mi SE 12.7 mph 17.3 mph N/A   Overcast
6:18 PM 59.2 °F 57.6 °F 94% 29.94 in 2.0 mi SSE 10.4 mph 17.3 mph N/A   Light Drizzle
6:38 PM 59.0 °F 57.6 °F 95% 29.92 in 2.5 mi SSE 9.2 mph - N/A   Overcast
6:58 PM 59.0 °F 57.6 °F 95% 29.92 in 4.0 mi SSE 10.4 mph - N/A   Overcast
7:18 PM 59.0 °F 57.4 °F 94% 29.92 in 1.8 mi SSE 10.4 mph 16.1 mph N/A   Overcast
7:37 PM 58.8 °F 57.4 °F 95% 29.92 in 2.0 mi SSE 10.4 mph 17.3 mph N/A   Overcast
7:58 PM 59.0 °F 57.6 °F 95% 29.92 in 1.8 mi SSE 11.5 mph 16.1 mph N/A   Overcast
8:18 PM 59.0 °F 57.7 °F 96% 29.92 in 1.8 mi SSE 10.4 mph - N/A   Overcast
8:38 PM 58.6 °F 57.6 °F 96% 29.91 in 1.5 mi SSE 10.4 mph - N/A   Overcast
8:58 PM 58.8 °F 57.7 °F 96% 29.91 in 2.0 mi SSE 6.9 mph 16.1 mph N/A   Overcast
9:17 PM 59.0 °F 57.9 °F 96% 29.91 in 3.0 mi SSE 10.4 mph - N/A   Overcast
9:38 PM 59.2 °F 58.1 °F 96% 29.90 in 5.0 mi SSE 8.1 mph - N/A   Overcast
9:58 PM 59.4 °F 58.1 °F 96% 29.90 in 4.0 mi SSE 10.4 mph - N/A   Overcast
10:18 PM 59.5 °F 58.3 °F 96% 29.90 in 5.0 mi SSE 8.1 mph - N/A   Overcast
10:37 PM 59.9 °F 58.6 °F 96% 29.90 in 5.0 mi SSE 9.2 mph - N/A   Overcast
10:58 PM 60.1 °F 58.6 °F 95% 29.90 in 5.0 mi SSE 9.2 mph - N/A   Overcast
11:18 PM 60.3 °F 59.0 °F 96% 29.89 in 5.0 mi SSE 6.9 mph - N/A   Overcast
11:38 PM 60.6 °F 59.2 °F 95% 29.88 in 5.0 mi SSE 10.4 mph - N/A   Overcast
11:58 PM 60.8 °F 59.4 °F 95% 29.88 in 5.0 mi SSE 9.2 mph - N/A   Overcast